Wind_Speed
14 14 14 14 15 15 15 15 15 15 15 14 14 13 14 15 15 16 17 17 17 17 17 18 17 19 20 20 21 22 25 29 30 24 16 16 13 6 8 12 14 13 11 11 11 7 4 5 5 8 8 6 3 3 5 3 3 4 4 6 6 6 7 9 11 8 5 8 8 1 5 7 5 3 3 2 1 2 3 3 2 5 7 5 6 14 23 23
14 14 14 14 15 15 15 15 15 15 15 15 15 14 14 15 15 15 16 17 17 17 17 17 17 19 19 20 20 21 25 28 24 19 14 10 4 2 9 15 16 15 10 12 12 8 5 4 7 9 6 5 3 4 6 4 4 6 3 6 8 6 6 7 10 8 4 6 3 3 2 6 5 3 3 3 2 4 4 2 1 4 7 7 12 17 21 23
14 15 14 14 15 15 15 15 15 15 15 15 15 15 15 15 16 16 16 17 17 17 16 17 18 19 19 20 19 21 25 24 16 10 4 5 5 6 11 15 16 14 12 16 14 11 7 2 7 9 6 5 3 4 6 5 5 5 3 7 7 6 7 5 5 7 3 2 3 3 0 2 3 2 1 2 2 4 5 3 3 3 6 9 12 16 19 22
15 14 14 14 15 15 15 15 15 15 15 15 15 16 15 16 16 16 16 16 17 16 16 16 17 18 18 19 19 22 21 16 6 3 5 3 2 9 12 16 17 13 12 16 12 11 8 2 4 5 5 6 3 4 7 7 5 4 5 7 4 6 8 5 4 7 3 1 2 3 0 1 2 2 2 2 3 4 4 5 7 8 12 14 14 16 19 21
15 15 15 15 15 15 15 15 16 16 16 16 16 16 16 16 16 16 16 17 17 16 16 16 15 17 17 17 18 19 14 7 1 7 6 4 4 13 15 17 19 12 8 17 13 9 8 4 4 4 5 5 6 5 7 8 4 4 6 4 4 6 7 5 5 5 3 3 2 2 1 1 2 2 3 3 4 2 0 3 6 11 16 17 18 19 19 19
15 16 16 16 17 16 16 16 16 16 16 16 16 16 16 17 17 18 17 17 17 16 16 14 15 16 16 17 16 12 6 4 1 7 2 7 13 16 16 17 18 13 3 14 12 9 6 4 6 7 6 5 9 8 6 8 5 5 5 3 4 6 7 4 5 5 4 5 4 2 2 1 1 2 2 3 6 2 1 1 4 12 17 19 20 19 19 19
15 16 17 17 17 17 17 16 16 16 15 16 16 17 18 19 20 20 19 18 17 16 15 14 14 14 15 16 11 5 2 7 12 10 8 15 18 15 17 19 16 10 2 10 9 10 7 8 8 7 7 6 8 9 6 7 7 8 5 4 6 7 8 4 3 3 4 6 4 1 1 2 2 2 1 3 6 3 2 3 6 13 16 18 19 18 19 19
16 16 17 17 17 17 17 17 17 16 16 16 16 18 19 20 21 21 20 18 16 16 14 13 12 11 13 13 8 4 5 13 19 14 12 16 13 15 22 19 13 10 1 6 6 9 8 10 10 6 8 7 6 9 8 8 9 11 7 4 4 6 8 4 2 1 2 3 1 1 3 4 4 1 2 5 5 3 1 5 10 13 15 17 17 17 17 16
16 16 17 17 17 17 18 17 17 17 17 17 18 20 19 20 20 20 21 18 15 14 13 12 10 9 10 9 6 6 7 11 13 10 8 8 13 24 27 19 15 12 1 4 5 7 8 9 10 6 6 6 7 9 9 10 8 9 9 5 5 5 5 5 5 5 3 2 2 4 5 5 4 1 3 6 4 2 4 8 12 14 15 16 15 16 16 15
17 17 17 17 17 18 18 18 18 18 17 17 19 20 19 19 20 21 21 19 15 13 12 11 9 7 8 6 5 7 8 9 7 7 7 11 24 30 25 18 15 10 3 4 4 6 6 6 6 3 2 4 7 6 8 9 4 6 11 8 7 6 4 4 5 4 3 3 5 6 5 4 2 3 5 2 2 5 8 9 11 13 14 15 14 15 16 15
17 18 18 18 18 18 19 19 19 18 17 18 19 20 20 20 20 21 21 19 16 12 11 10 8 6 4 2 4 8 7 6 6 8 15 24 30 27 20 16 11 6 4 4 4 5 3 1 2 2 2 4 8 5 5 7 2 6 11 9 10 10 5 5 4 4 2 3 6 6 5 2 2 5 6 3 6 8 10 10 11 12 11 13 14 14 14 14
18 18 18 18 18 19 19 19 19 18 17 18 19 20 21 20 21 21 20 19 15 11 10 9 8 5 4 4 11 18 13 10 14 21 27 28 25 20 17 14 9 7 5 3 3 2 2 2 1 4 1 3 8 5 4 6 4 5 8 8 10 10 10 10 8 6 5 4 5 6 6 6 7 6 3 6 9 9 9 10 11 11 10 12 13 13 12 13
19 19 19 19 19 19 19 19 19 18 18 18 19 20 21 21 22 21 18 17 14 11 9 8 7 4 4 6 14 24 25 23 25 29 26 20 18 18 13 8 6 7 7 6 4 2 0 2 0 3 0 1 5 2 1 5 5 6 6 6 7 7 9 11 9 8 8 5 5 6 6 8 10 7 5 8 10 10 9 9 10 10 10 11 12 11 12 13
19 19 19 19 20 20 20 20 19 19 18 19 19 19 21 23 24 22 18 16 13 10 8 7 6 3 5 9 14 21 23 21 23 23 17 12 16 15 7 4 3 6 10 9 6 2 1 2 1 2 1 1 1 1 1 4 5 6 6 4 6 6 4 5 8 11 11 5 6 9 8 6 7 5 7 9 11 12 11 10 10 10 10 10 11 12 12 13
19 19 19 19 19 20 20 20 20 20 19 20 20 20 23 26 25 22 18 15 12 8 7 6 5 3 5 12 15 15 11 10 14 13 9 10 12 11 6 6 6 6 10 10 7 2 3 4 4 3 1 1 0 1 4 4 5 7 6 6 7 7 3 3 6 13 14 5 7 12 7 6 6 5 8 10 12 13 11 11 11 11 12 11 11 12 12 12
20 20 20 20 19 20 21 20 20 20 20 21 22 23 26 26 22 20 17 11 8 7 6 5 5 4 5 7 6 6 5 5 8 7 7 11 12 11 11 11 8 7 9 9 9 4 4 5 4 2 1 3 3 4 5 4 5 6 7 6 7 9 5 3 4 10 15 8 8 13 7 5 4 3 9 12 13 13 11 11 12 12 12 11 11 11 11 11
20 20 20 20 20 21 21 21 21 20 21 22 23 27 28 23 16 15 11 4 5 8 8 3 3 4 6 6 5 6 4 4 6 10 13 15 13 11 11 8 5 6 8 6 7 6 4 5 4 3 2 3 4 5 7 8 8 6 5 3 4 9 7 5 4 5 12 11 11 13 11 11 2 1 8 13 15 15 12 12 12 12 11 10 10 10 12 12
20 21 20 20 20 21 21 21 21 21 22 22 24 29 25 15 9 7 1 5 5 6 5 3 3 3 6 6 5 4 2 4 9 14 16 12 5 5 5 5 4 4 9 5 5 7 5 4 5 4 5 6 7 9 9 7 8 8 8 5 4 8 11 10 7 5 10 12 13 13 13 17 6 3 8 12 14 15 13 13 12 12 12 11 10 11 12 12
22 21 21 21 21 21 21 21 22 22 22 23 26 27 16 6 4 1 6 7 4 3 3 3 6 4 5 3 3 4 6 10 13 13 11 4 2 7 5 4 5 4 9 7 7 8 6 4 5 7 9 10 11 12 6 3 9 11 10 8 7 9 9 8 5 5 10 11 12 13 13 17 9 6 8 11 13 14 12 11 10 10 11 10 11 11 12 13
23 23 22 22 21 21 20 21 23 22 21 23 24 18 7 3 3 1 3 3 6 7 8 7 9 10 11 9 6 7 11 12 10 9 7 3 5 10 5 3 3 5 9 9 8 7 6 7 9 10 10 10 12 11 3 3 9 12 10 9 8 9 6 4 4 3 8 9 10 12 12 15 10 8 10 10 12 13 13 12 10 10 11 11 13 13 13 14
24 24 24 23 22 22 21 21 23 22 21 21 15 7 2 3 4 4 4 7 11 12 14 13 13 15 15 15 13 9 9 9 7 8 10 8 5 6 2 4 5 6 8 10 8 5 7 10 11 8 6 9 13 11 5 3 8 11 11 9 7 8 5 5 6 4 6 7 7 9 12 16 10 8 9 9 12 14 14 15 13 14 14 12 13 15 14 12
23 23 24 25 23 23 22 21 24 25 21 15 7 2 3 4 4 6 6 8 10 12 15 16 14 15 17 20 19 10 6 9 9 9 10 8 6 5 4 5 7 6 9 10 7 7 9 10 8 7 7 10 13 13 7 5 7 7 8 9 6 5 3 4 4 2 6 6 4 7 11 14 7 5 6 11 13 14 15 16 15 15 15 14 14 14 13 12
23 22 23 24 24 25 23 22 26 25 15 7 5 5 5 4 5 7 5 8 10 7 11 13 11 12 13 15 13 9 8 9 8 7 6 8 7 6 6 6 7 5 10 14 11 9 8 7 8 8 9 13 14 15 10 6 5 4 6 9 6 4 4 5 4 3 5 2 1 7 9 8 3 4 4 9 12 11 13 15 13 13 14 14 14 12 11 13
23 23 22 23 25 24 23 25 25 17 6 5 10 8 4 4 6 6 4 5 8 5 6 8 7 8 8 6 4 9 8 7 6 5 4 10 7 5 6 6 7 7 11 16 13 8 4 4 10 10 11 15 15 16 14 7 4 2 3 6 6 6 4 2 3 3 3 0 2 6 5 5 3 5 5 6 9 11 12 14 14 14 14 13 12 12 13 14
23 23 23 24 24 23 26 25 15 5 4 10 12 5 2 4 5 4 3 4 6 4 3 4 4 4 5 3 4 7 4 4 9 8 4 9 7 5 6 5 6 8 10 13 11 7 3 3 10 13 12 15 15 15 16 11 6 3 3 4 6 9 6 2 3 4 5 5 3 3 6 4 3 6 6 5 8 12 12 13 16 16 15 14 13 14 14 14
23 22 23 25 22 24 24 14 6 7 11 10 4 1 3 5 3 2 2 3 4 2 1 2 2 2 3 4 5 4 2 3 9 12 10 9 6 3 5 5 4 6 8 9 6 4 3 2 8 14 13 15 15 13 15 13 7 5 4 5 4 6 7 4 3 5 6 5 2 1 7 4 2 5 5 6 10 13 12 14 16 15 13 14 14 14 13 13
24 23 24 25 23 23 17 9 12 14 10 4 3 2 4 5 1 2 1 2 3 1 1 1 2 1 2 4 6 4 1 3 3 7 11 11 6 3 5 7 5 4 6 7 5 4 8 7 8 13 14 13 13 10 12 14 9 4 4 7 7 5 5 5 3 3 1 1 2 1 4 4 4 3 2 5 8 9 11 14 15 14 14 16 15 14 13 13
26 26 26 25 24 22 18 17 17 12 8 6 5 5 5 3 1 1 2 2 1 1 1 2 2 1 1 3 6 6 4 6 4 1 6 11 7 2 4 7 6 7 8 9 6 6 11 11 8 12 13 10 9 8 11 14 9 3 4 8 7 5 4 3 2 2 2 1 5 4 4 5 6 2 3 4 7 8 12 16 16 14 15 16 15 14 14 13
28 28 28 28 27 23 19 16 13 11 10 7 5 5 3 2 1 1 0 1 1 1 0 1 3 2 0 0 5 8 5 3 3 1 3 8 8 2 2 4 6 9 10 10 7 4 8 11 8 10 11 7 8 9 12 15 8 4 7 7 5 3 3 1 1 1 1 3 6 7 7 7 5 3 4 4 6 10 11 12 13 14 14 15 14 15 14 12
30 31 30 28 26 21 14 11 15 15 11 7 5 3 2 1 1 0 1 1 1 1 1 1 3 1 1 1 3 6 7 5 3 1 2 4 5 3 2 1 4 7 8 8 8 2 3 8 8 7 7 7 9 10 13 14 8 8 9 7 5 3 1 1 1 0 2 5 5 7 6 5 5 3 5 6 6 8 8 8 10 12 13 14 14 14 14 12
33 34 32 27 22 16 9 8 12 13 12 10 6 3 1 0 1 1 1 1 2 1 1 2 3 2 2 3 4 4 6 5 3 4 4 3 5 5 3 3 4 6 7 7 8 4 2 7 7 5 7 8 9 10 11 12 10 11 10 7 6 3 1 2 1 1 5 5 3 5 6 5 7 4 4 8 7 7 9 9 10 12 14 15 13 12 12 11
38 36 29 21 14 11 8 6 7 8 12 11 7 4 1 0 1 3 2 2 3 1 0 1 2 3 4 5 5 5 5 4 4 7 7 5 7 6 4 5 6 6 8 9 9 7 3 5 5 6 10 12 11 10 8 8 9 11 10 9 8 6 4 5 5 4 5 3 1 3 6 5 6 5 5 9 9 9 10 9 10 11 12 12 11 11 11 11
39 32 20 11 6 7 9 6 1 7 15 14 8 2 1 1 2 4 3 2 1 0 1 2 4 6 7 6 5 5 4 3 4 7 8 7 7 6 4 4 2 1 5 10 10 8 4 2 5 9 10 12 13 12 9 8 10 12 11 12 10 7 7 7 6 3 3 3 1 1 4 3 4 5 8 12 12 10 10 10 10 8 7 8 10 11 11 13
35 22 12 7 3 3 9 9 6 13 17 12 4 1 2 2 3 3 3 3 2 2 2 3 6 9 9 7 4 3 3 3 4 6 10 9 7 7 6 6 4 2 3 10 7 7 8 4 8 11 7 12 16 10 7 7 8 7 5 7 7 5 5 5 5 4 3 3 2 2 3 4 4 3 4 7 6 5 7 9 9 7 5 7 9 11 12 14
28 12 6 7 5 1 9 14 10 12 14 7 1 2 3 3 3 2 3 3 2 3 4 6 8 8 6 3 4 3 3 3 4 7 9 9 8 8 7 6 7 3 4 9 5 6 8 3 6 8 3 13 16 5 6 10 8 4 2 5 6 4 3 2 1 2 3 2 3 3 3 2 3 2 0 2 4 4 5 7 8 7 7 9 10 11 13 14
21 8 4 7 8 5 6 17 15 11 9 3 2 3 4 4 2 2 2 2 2 3 8 9 6 4 2 1 1 3 4 3 4 5 7 9 9 9 7 4 5 6 5 6 4 6 7 3 7 10 5 11 14 8 8 10 7 4 5 7 4 2 4 3 1 2 1 4 3 2 4 4 4 5 1 2 4 4 3 5 8 8 10 11 10 11 12 13
18 9 4 6 9 8 4 15 17 12 5 2 4 4 3 4 3 3 2 2 1 2 6 6 2 1 2 0 1 2 4 3 3 4 6 9 8 8 8 4 4 8 7 4 3 3 5 4 7 12 9 9 11 11 9 7 6 6 7 6 4 3 1 1 3 2 3 6 3 2 6 6 5 4 2 2 4 5 4 5 7 8 10 11 10 11 12 13
15 8 3 5 10 9 4 15 18 11 3 2 6 6 4 3 3 3 3 2 2 3 5 4 2 1 1 1 1 3 5 4 4 3 6 8 5 7 10 5 5 9 8 5 2 2 4 4 5 11 11 8 9 11 9 6 4 5 6 5 3 4 4 2 2 3 5 5 2 3 4 4 6 6 3 3 6 6 5 6 8 10 12 11 10 11 13 14
10 4 1 5 10 8 6 16 14 7 2 3 6 5 4 4 4 4 4 5 5 5 5 3 3 2 1 2 1 3 4 4 5 4 5 5 3 8 12 7 7 9 7 6 3 1 3 3 4 9 9 9 8 10 10 8 3 2 6 6 2 2 4 3 1 2 5 4 2 3 3 3 6 6 8 9 7 6 6 7 9 12 12 10 10 11 13 14
6 2 0 5 10 2 12 14 8 3 3 4 4 5 4 5 5 6 7 7 5 4 4 3 4 3 2 2 1 2 3 5 7 4 3 5 4 6 11 10 8 8 7 8 5 1 1 1 4 7 7 8 9 9 10 12 8 6 9 9 4 2 2 2 1 0 2 3 3 3 3 4 4 4 9 11 4 5 8 8 8 8 9 8 9 11 12 13
4 1 1 6 6 8 13 7 2 3 3 4 5 6 7 6 5 6 8 9 6 5 5 4 4 3 3 2 0 1 2 4 7 4 3 6 4 3 8 11 8 6 6 6 5 3 2 1 4 7 7 7 7 5 7 12 12 9 7 7 6 4 4 6 5 1 0 0 2 2 2 4 3 2 5 5 1 3 7 7 6 6 8 9 9 11 12 12
3 1 2 6 2 12 9 1 3 2 3 5 4 6 8 7 6 5 5 6 6 6 5 3 4 5 4 2 0 1 2 3 7 5 3 7 7 5 8 11 7 7 7 5 3 3 2 1 3 5 5 4 4 6 9 12 11 8 6 7 6 4 5 8 7 3 2 1 1 1 1 2 1 1 2 2 0 3 5 6 6 6 8 10 10 11 12 11
2 3 4 4 5 11 2 3 3 2 4 5 5 7 8 6 5 5 4 3 4 3 3 2 4 4 2 1 1 1 2 3 6 5 3 6 8 6 7 8 7 8 8 4 2 3 2 1 3 6 5 2 3 4 9 11 10 8 7 8 8 6 5 6 3 2 4 3 2 2 2 1 1 2 2 2 2 2 3 5 6 7 8 10 11 12 11 12
3 4 3 3 5 7 1 3 3 4 5 7 10 9 6 3 4 5 4 3 2 2 2 2 3 3 1 2 3 3 2 3 4 4 3 4 5 3 5 8 9 8 7 3 3 4 3 1 3 7 7 4 4 5 8 11 11 9 6 7 9 6 4 3 2 3 5 4 2 3 3 1 1 1 1 1 2 2 3 5 7 8 8 10 11 11 11 12
4 2 2 2 3 4 1 1 2 5 8 10 12 10 5 3 5 6 6 5 5 4 3 3 2 2 2 2 3 3 4 4 2 2 3 3 1 1 5 9 11 8 6 5 4 3 1 1 2 6 9 8 7 5 6 8 9 7 6 9 11 10 8 5 3 4 6 3 3 5 5 2 1 0 1 2 3 3 3 6 7 8 9 10 11 10 11 12
3 1 3 3 2 3 2 2 2 3 5 8 9 7 6 5 4 5 6 5 5 5 4 5 3 2 3 3 2 3 3 3 2 2 2 2 0 1 4 8 9 9 9 9 5 2 1 2 1 3 6 6 5 3 5 8 9 8 9 11 12 10 8 4 3 5 5 4 4 7 5 4 6 2 1 1 2 3 4 6 8 8 9 10 11 12 11 11
2 2 3 4 2 1 1 2 1 3 6 6 4 4 6 9 7 2 4 3 2 3 3 4 4 2 3 3 2 3 2 1 1 2 1 1 1 1 2 4 6 10 11 10 6 2 0 0 1 2 2 2 1 2 7 13 12 9 10 10 10 8 7 5 4 4 5 6 5 5 2 3 9 5 1 0 3 4 5 7 8 8 9 10 11 13 13 12
3 1 2 3 3 3 3 3 5 8 10 8 2 3 7 11 10 6 2 2 1 2 3 2 3 4 3 3 1 1 1 1 1 2 1 0 1 1 2 4 4 9 11 7 4 3 1 1 1 2 2 3 3 2 5 13 13 10 12 13 11 9 9 9 5 3 5 5 3 2 4 7 9 4 1 1 4 6 7 8 8 8 10 11 12 14 15 15
3 2 2 3 3 5 7 9 10 10 11 8 3 3 7 10 11 9 4 2 2 2 3 2 2 3 3 2 1 1 2 1 1 2 1 1 1 1 2 4 3 7 8 5 3 2 2 1 1 2 3 4 4 4 4 10 13 12 13 14 13 11 11 10 7 4 4 3 1 1 3 7 7 3 1 1 2 4 6 8 9 11 12 13 14 15 16 15
3 3 4 4 4 6 7 7 8 7 7 6 5 4 6 8 11 12 7 3 4 2 3 2 4 1 3 4 3 3 4 2 1 2 3 3 1 0 1 1 2 5 7 5 3 2 2 2 1 1 2 3 2 5 6 8 12 13 12 13 14 12 11 10 6 3 2 4 1 3 2 6 4 2 1 1 1 4 7 10 11 12 13 14 14 15 15 15
5 6 6 6 5 5 5 4 5 6 5 3 5 7 7 8 12 15 8 4 5 3 3 4 6 4 2 5 6 8 8 6 6 4 3 3 2 1 1 2 2 4 7 5 2 2 2 2 1 1 2 1 1 5 8 7 8 10 11 12 13 12 10 7 4 4 5 6 3 2 5 5 1 0 1 1 4 6 8 11 12 12 14 15 16 15 15 15
8 7 5 5 5 4 5 6 5 4 3 3 5 9 9 10 13 13 7 1 3 5 6 6 7 4 2 3 6 9 10 9 9 7 4 5 6 4 3 5 6 3 5 3 1 2 1 1 1 2 1 1 2 4 9 8 5 6 7 10 13 11 8 5 2 4 6 5 4 5 6 3 1 2 3 3 6 6 7 10 11 12 15 16 15 15 15 15
Wind_Direction
356 352 352 353 349 348 346 345 343 341 343 340 336 332 327 330 331 332 333 332 333 333 331 328 327 325 322 329 331 324 322 320 320 315 294 286 292 285 314 330 323 310 300 287 272 269 267 238 202 167 155 150 181 177 165 171 155 176 190 210 214 191 189 171 177 189 170 228 247 136 172 176 157 169 168 174 146 161 143 93 50 32 31 39 95 126 141 149
355 353 353 350 348 346 344 343 342 341 343 342 341 337 333 332 329 329 331 330 330 329 331 330 330 327 322 327 331 326 323 321 314 294 288 307 315 334 343 344 325 304 279 251 243 227 216 214 181 168 163 170 179 169 174 172 182 195 170 208 215 178 176 178 184 186 169 221 229 61 179 172 169 157 142 207 197 173 177 118 74 66 68 85 118 134 143 152
354 353 351 348 346 343 342 341 341 340 339 340 338 337 338 336 333 331 330 328 326 325 328 329 330 330 325 326 328 329 325 320 305 273 314 48 78 20 348 345 328 298 259 240 234 213 213 211 177 177 175 186 177 171 182 177 189 197 183 217 213 170 190 202 196 199 196 221 133 110 28 149 168 175 186 229 188 200 216 180 167 152 132 128 137 146 151 159
352 352 349 347 343 342 341 339 339 338 337 337 335 335 334 334 333 331 330 328 325 324 325 328 331 330 329 327 325 333 327 311 293 156 73 81 71 6 346 347 339 304 251 232 222 206 211 186 179 186 183 192 180 177 184 181 181 175 202 221 186 168 203 197 196 216 208 152 136 131 120 179 175 210 218 200 195 223 236 206 194 175 159 155 157 162 164 167
351 350 349 346 344 343 341 340 339 339 338 336 335 334 331 331 330 329 330 326 324 324 323 325 329 330 331 324 325 338 327 299 102 123 70 32 339 349 344 348 348 332 249 211 193 190 202 170 167 179 187 187 172 182 192 186 171 173 208 221 141 161 204 198 196 211 170 160 157 135 220 215 168 210 198 200 235 253 75 208 198 168 163 168 170 169 171 174
352 350 350 347 345 344 342 340 339 338 337 335 333 332 330 329 326 325 325 323 322 319 319 320 326 332 329 323 329 340 314 293 134 167 131 346 323 332 343 345 346 354 234 195 177 176 189 167 175 178 183 189 187 189 184 181 183 207 208 193 166 172 199 202 200 201 164 183 187 176 235 116 115 227 189 223 246 261 47 240 192 167 169 175 172 173 177 180
350 349 347 346 344 343 343 340 337 335 332 331 330 329 326 325 324 323 321 319 318 314 315 315 322 331 327 328 336 339 265 270 268 241 257 295 306 325 338 337 338 359 158 192 186 181 176 178 184 172 177 189 195 193 182 179 194 223 211 175 184 184 200 187 151 176 168 204 206 154 225 159 217 240 152 237 249 268 291 229 182 165 168 175 175 180 184 184
347 346 344 343 342 341 340 338 336 333 331 331 327 325 324 324 325 324 324 322 316 313 312 312 317 327 328 335 338 307 262 261 272 278 277 280 301 326 330 329 328 349 136 208 230 193 171 179 182 161 188 195 185 187 182 180 197 218 208 170 174 187 209 202 164 171 161 216 187 142 238 224 226 244 190 235 259 290 232 166 159 159 168 179 183 185 187 186
343 342 341 339 339 337 336 335 334 332 333 332 326 325 324 325 326 323 325 323 316 312 310 311 312 315 322 331 325 296 264 258 276 291 277 282 317 322 324 324 319 337 325 240 278 209 182 183 186 173 197 190 177 185 183 192 203 204 197 182 179 188 201 205 224 231 203 210 172 181 234 234 212 171 228 245 270 244 160 149 153 163 174 184 188 187 188 189
341 340 338 336 335 333 332 331 330 329 331 329 325 325 323 321 321 319 322 321 313 308 305 306 308 312 317 315 292 274 263 260 271 272 269 303 318 319 322 322 315 324 300 278 277 205 189 183 184 177 200 177 178 183 183 198 190 173 192 198 206 214 190 177 207 210 191 183 182 196 224 230 181 196 226 231 224 187 156 153 163 172 182 187 190 190 191 191
341 340 337 336 334 331 331 329 327 326 326 324 321 320 318 317 318 316 315 315 310 304 301 300 305 306 301 300 256 254 257 259 264 281 295 308 315 316 317 318 310 291 261 280 270 213 204 179 162 176 194 172 172 174 192 198 142 162 186 194 214 231 229 203 201 184 174 186 186 202 229 228 137 209 230 171 177 183 164 165 176 183 189 192 195 194 193 195
340 339 337 336 335 333 331 328 326 324 321 320 317 316 317 316 316 313 309 311 308 298 299 300 301 295 275 265 241 241 250 269 285 295 301 307 310 309 311 308 288 250 220 232 269 224 167 55 155 199 192 164 162 161 204 185 159 162 170 187 204 224 236 224 218 203 194 203 178 184 230 229 192 201 208 158 176 187 180 176 181 192 194 196 200 197 196 197
338 337 337 336 336 335 333 330 327 325 322 318 316 316 315 314 314 311 307 307 303 292 295 300 298 290 274 264 245 251 266 280 289 294 299 306 305 308 315 305 269 226 205 215 234 212 211 18 203 201 2 182 160 136 217 159 166 163 164 193 185 202 232 215 204 197 200 206 161 177 236 228 205 197 162 163 179 185 189 185 186 196 199 201 202 200 201 200
338 337 336 335 335 335 334 331 328 326 323 319 317 316 313 315 316 313 306 299 294 284 283 293 293 285 258 259 268 277 283 285 285 286 294 307 307 314 333 345 303 206 198 214 220 220 258 28 121 183 320 245 160 354 118 129 176 164 156 202 192 200 210 181 179 178 194 207 162 195 246 235 206 188 171 179 183 183 190 191 191 196 201 204 202 204 206 206
337 338 336 335 335 334 333 331 329 326 324 321 318 316 313 316 318 314 305 290 280 273 272 280 270 263 271 271 282 294 294 280 277 281 303 315 308 310 313 319 311 217 196 207 205 146 122 129 153 185 187 187 280 244 150 136 187 173 175 193 195 209 180 146 175 177 190 194 177 202 239 251 223 184 175 184 188 189 195 192 191 198 202 205 203 206 209 212
338 338 337 336 335 334 333 330 329 326 324 323 319 317 316 318 318 311 301 280 259 245 247 263 232 215 264 281 294 301 285 257 277 299 315 316 305 292 293 299 292 230 208 213 203 169 146 151 158 185 166 170 189 185 151 151 185 188 205 190 176 198 191 161 166 190 193 169 186 209 228 253 230 187 184 182 188 195 201 195 194 202 204 206 205 206 212 215
338 338 337 336 336 335 334 330 329 328 325 324 320 319 320 319 315 309 303 268 218 215 217 225 176 196 245 269 294 289 270 250 288 308 307 312 308 293 287 287 283 218 197 200 194 179 172 163 158 178 199 187 172 173 178 190 190 184 197 173 154 185 191 180 157 203 198 175 190 205 223 237 217 114 192 183 188 193 200 201 198 205 209 210 209 208 214 216
337 338 337 336 336 335 334 332 329 327 326 323 320 322 322 317 314 316 8 125 141 175 192 199 174 226 240 234 270 289 293 292 302 306 306 311 327 331 295 253 289 212 170 160 176 172 170 174 171 174 184 187 182 188 195 192 170 157 170 165 144 176 192 199 177 171 188 192 199 188 212 232 208 106 191 189 193 195 199 202 197 206 212 211 211 213 217 218
336 337 337 335 336 334 333 333 330 328 326 322 323 327 325 312 319 57 124 124 131 172 220 200 182 238 292 266 276 306 308 304 303 295 290 290 6 345 320 241 274 219 173 171 179 177 174 165 171 188 195 192 188 189 189 127 139 149 167 168 161 179 194 202 184 166 181 192 203 187 202 226 204 145 187 195 198 204 207 206 200 207 214 214 215 219 220 221
332 334 335 334 335 333 331 333 332 329 326 325 328 334 339 340 336 178 157 203 229 242 261 240 203 237 284 294 294 315 312 301 293 269 242 220 334 328 310 216 245 222 190 174 165 173 177 181 195 200 193 176 171 174 145 83 148 150 164 171 172 188 188 189 192 184 185 189 201 193 202 223 207 167 190 194 195 208 212 212 213 213 217 217 218 222 221 224
328 329 332 333 333 330 328 330 332 330 324 324 332 346 342 317 317 312 310 268 244 241 252 246 226 238 258 269 280 316 326 299 277 259 254 264 304 317 271 178 197 210 185 160 142 151 185 205 207 188 155 146 158 168 135 109 155 153 169 175 177 195 181 176 194 180 180 199 200 187 207 225 210 170 190 190 191 206 207 207 211 212 217 220 223 226 224 228
325 326 326 328 329 327 327 328 328 327 320 319 334 348 275 267 274 295 309 290 266 237 239 246 241 249 255 260 269 280 289 279 278 273 258 243 218 205 186 175 204 199 159 156 151 163 199 215 187 144 135 143 157 172 149 123 158 160 172 177 175 185 152 154 197 166 172 203 200 175 208 225 197 134 186 192 195 205 204 205 207 207 212 217 221 224 224 229
325 325 323 324 327 325 327 328 324 321 313 305 314 301 289 285 278 279 277 293 291 239 230 243 239 247 257 263 260 232 231 250 265 271 212 181 185 200 190 184 209 189 162 179 186 180 201 204 155 138 149 151 158 174 164 124 151 162 169 177 175 167 159 165 174 148 157 210 193 167 204 229 166 108 210 211 208 211 209 214 219 218 219 220 222 226 226 228
325 326 324 323 323 323 326 326 321 315 295 289 302 299 307 316 292 286 279 285 290 262 233 233 227 237 247 264 224 192 214 226 233 270 199 180 181 188 198 193 192 194 187 189 190 186 189 151 144 145 155 158 161 174 177 162 152 163 181 179 162 162 183 155 132 138 136 110 130 150 197 238 190 180 208 218 218 220 218 221 227 229 230 231 233 234 232 231
324 324 322 319 320 325 327 323 318 313 305 303 301 305 8 339 300 286 296 292 283 269 228 209 218 234 217 194 167 183 218 236 230 248 226 197 191 172 186 193 192 204 198 184 182 189 183 134 151 155 158 162 163 175 184 180 161 166 215 202 156 155 165 112 112 153 168 188 171 163 212 219 185 202 195 168 201 219 220 224 228 226 226 229 233 232 231 233
321 320 319 318 322 328 328 322 311 311 310 303 291 98 26 352 332 261 254 298 287 254 187 194 204 208 192 174 166 178 192 244 233 229 225 221 223 220 187 180 203 210 186 173 183 197 182 163 168 165 158 162 168 177 183 181 171 167 191 195 158 134 139 126 138 171 184 189 140 224 227 211 167 208 194 166 196 215 216 223 230 225 221 223 226 227 227 230
321 320 320 320 324 327 325 308 303 305 293 266 172 141 350 356 354 214 240 291 286 229 185 232 198 192 237 182 160 176 227 342 286 213 214 219 224 273 213 178 183 193 164 166 190 192 178 178 182 172 160 165 177 176 180 184 180 165 158 167 162 138 134 123 128 165 192 148 111 192 226 232 220 200 148 170 198 215 216 225 231 224 221 222 225 226 225 226
323 322 321 319 318 316 306 293 294 284 258 252 232 246 310 357 221 232 298 296 283 138 210 234 187 179 260 186 179 216 299 346 334 214 192 205 202 231 220 188 179 174 169 185 187 160 176 183 180 175 171 176 176 156 165 179 179 162 151 159 161 152 139 118 131 133 42 216 200 175 169 221 228 163 97 168 201 223 222 225 228 223 222 224 227 228 228 229
324 322 319 316 313 307 299 288 270 252 258 260 220 230 311 12 254 226 324 274 190 149 241 223 203 200 196 201 210 235 279 313 284 1 127 192 207 228 230 197 184 175 178 199 195 141 181 189 173 177 182 172 154 140 158 177 180 140 134 132 125 134 138 136 244 155 63 237 208 169 170 218 230 168 145 171 210 227 225 225 226 223 222 221 223 225 225 225
323 320 317 316 310 305 300 278 254 250 252 244 220 227 352 18 232 220 185 262 289 211 173 192 211 198 97 311 248 232 237 235 239 237 145 183 205 238 272 212 195 186 176 195 203 167 169 178 167 178 182 157 144 145 164 176 164 135 139 129 109 107 127 146 323 340 224 240 208 169 174 220 236 189 168 190 212 214 213 224 225 221 219 218 218 219 217 215
322 320 318 314 305 296 286 268 263 252 235 231 219 173 84 31 174 198 205 257 286 260 217 219 213 203 218 255 265 225 219 234 230 196 193 181 177 201 227 186 188 189 168 175 197 199 142 162 170 171 168 156 141 150 171 172 157 152 160 157 143 133 125 149 131 206 221 227 188 173 176 203 230 215 179 204 214 206 211 221 219 215 213 212 212 209 206 207
323 322 320 314 299 273 243 248 278 243 207 189 157 127 115 176 223 223 237 310 289 243 167 222 223 244 254 261 262 247 233 227 201 188 182 173 179 192 207 182 166 175 178 173 180 189 171 162 166 158 170 174 156 152 171 172 170 175 169 166 172 169 164 186 191 193 213 218 58 166 177 199 238 246 239 234 232 225 223 227 225 221 212 203 199 194 192 198
325 326 327 325 298 249 218 216 205 160 161 150 135 98 122 179 255 219 224 292 268 291 303 236 253 264 272 279 259 238 236 219 197 186 170 169 184 190 224 230 187 182 183 171 171 176 162 148 179 170 171 185 177 166 173 178 182 184 175 177 183 174 175 191 190 180 193 189 44 108 173 209 254 243 231 233 236 232 228 232 235 232 212 189 183 181 185 192
328 332 344 356 331 234 192 184 150 140 144 139 126 80 165 227 264 216 226 247 233 302 296 264 281 282 282 278 241 193 209 219 209 182 164 168 186 185 209 225 221 315 150 163 174 174 164 158 185 182 166 179 188 184 162 150 168 182 172 178 184 177 184 186 177 172 162 150 125 134 183 202 203 197 207 228 254 254 239 244 242 230 199 175 173 176 183 189
334 344 5 20 31 64 174 180 171 144 140 133 134 203 210 243 257 225 241 245 245 297 290 284 284 286 289 257 224 221 221 215 210 189 165 169 186 183 193 201 198 224 170 163 167 174 174 140 163 180 176 176 182 178 128 139 162 185 144 171 192 184 153 118 120 154 132 138 155 179 218 220 231 268 210 232 265 250 242 242 226 210 177 164 173 177 182 190
340 358 21 28 29 15 182 183 186 172 151 141 201 213 229 245 235 196 217 243 260 305 306 299 271 258 303 140 182 236 222 198 209 199 160 171 190 185 194 205 184 203 200 166 153 173 176 118 150 177 201 189 177 159 165 170 163 161 175 183 176 117 117 119 112 43 88 209 182 162 220 234 262 272 172 175 231 216 216 214 199 188 169 168 179 178 181 191
338 346 358 10 9 356 209 184 184 184 163 154 216 232 243 245 227 203 225 276 268 286 305 307 245 204 316 321 136 184 191 175 215 217 153 169 191 184 196 217 177 199 225 200 168 193 175 123 160 182 185 192 177 164 188 198 149 152 185 175 114 70 51 122 156 138 177 211 193 152 213 219 229 242 121 139 223 219 198 188 181 174 175 181 182 176 181 189
325 322 324 346 358 351 229 181 172 167 143 183 241 256 249 233 218 203 228 267 271 269 277 281 234 183 303 274 120 158 192 177 190 205 154 161 182 184 193 207 188 204 224 211 181 235 200 135 159 192 180 170 176 175 191 212 188 177 172 150 135 189 199 166 163 167 173 194 194 178 216 231 213 223 236 193 212 221 193 176 184 185 188 191 180 175 182 186
318 309 354 359 355 348 188 168 155 147 164 219 245 256 248 250 239 219 239 258 262 267 266 248 227 210 229 267 114 164 213 185 163 180 165 159 165 185 191 192 204 210 201 192 192 233 218 153 153 200 183 153 170 189 191 190 194 180 162 161 200 211 183 181 179 172 178 180 177 177 196 235 212 223 250 236 219 205 182 182 198 197 193 191 177 176 183 185
328 318 112 2 353 358 159 150 141 156 207 236 250 257 275 285 263 237 240 249 247 245 256 245 224 214 221 246 208 198 223 173 162 185 186 166 150 178 192 192 204 207 177 189 219 222 225 206 151 173 167 158 182 202 194 180 170 176 181 178 179 151 148 192 182 86 192 175 174 184 194 228 214 205 239 242 225 186 190 195 204 200 192 187 177 179 184 185
326 1 200 349 3 144 148 138 160 195 227 266 267 263 280 288 275 261 249 246 240 231 249 260 249 263 283 272 186 194 223 160 165 202 201 175 167 171 201 206 201 181 158 184 222 214 193 209 153 158 169 178 181 173 172 176 174 179 186 178 176 164 155 185 190 179 319 143 164 188 214 231 213 190 235 245 133 186 204 197 192 187 187 188 184 184 185 185
311 24 312 336 67 149 147 187 220 205 249 261 267 266 278 285 276 281 275 257 247 230 231 245 247 258 267 267 83 183 235 167 170 203 204 188 201 195 194 204 187 163 171 188 210 206 181 149 141 148 162 169 146 146 166 171 168 174 187 181 180 180 178 190 192 169 164 136 110 154 276 244 154 73 269 279 330 230 211 189 181 174 180 185 184 184 183 184
323 307 314 334 161 159 151 286 223 233 246 255 285 271 266 277 271 282 294 269 256 237 212 223 247 249 232 200 208 220 235 189 182 204 208 194 211 209 182 183 173 170 187 196 180 184 184 161 125 124 131 120 85 126 162 163 162 179 198 189 182 189 189 188 183 169 193 193 158 192 247 239 68 16 291 267 273 258 206 184 178 168 176 182 180 180 179 180
313 280 303 342 179 178 287 306 272 302 291 298 308 291 262 241 250 275 285 263 260 269 245 235 239 241 223 182 197 213 229 211 192 210 231 208 209 201 154 167 188 192 189 187 180 176 190 242 143 138 152 148 110 133 168 177 184 190 189 181 183 179 156 149 135 164 205 208 171 207 237 215 93 1 327 107 143 173 186 191 183 171 174 179 177 177 173 174
310 260 262 309 218 204 235 295 297 301 306 316 316 309 304 262 237 245 260 268 260 254 267 266 221 190 231 230 202 218 235 227 200 218 241 226 214 133 144 169 194 206 207 212 197 153 142 223 160 157 171 167 159 170 176 176 183 183 166 171 183 182 170 164 143 171 199 185 156 216 242 262 256 147 83 89 119 141 167 187 190 179 174 174 173 172 169 172
343 331 312 317 219 201 223 246 257 267 298 320 318 312 321 320 282 230 231 258 250 233 252 272 250 194 205 234 245 244 235 222 216 247 246 209 145 63 158 177 189 201 224 232 211 126 107 200 212 196 189 176 158 124 108 137 166 175 162 168 183 186 176 156 144 184 186 139 172 223 245 297 288 274 85 104 140 149 171 181 186 180 172 171 172 171 172 176
17 352 332 342 313 271 268 228 236 281 297 312 315 309 317 319 318 280 197 215 247 247 253 258 255 230 177 180 225 266 255 133 206 250 275 204 297 335 161 169 179 197 219 231 217 185 3 255 190 195 217 217 179 86 133 154 167 169 160 167 181 180 174 179 180 173 147 141 198 226 176 249 268 275 27 174 180 174 185 184 180 174 169 171 173 174 177 178
15 336 309 344 314 304 319 299 301 307 303 303 285 281 312 319 326 334 259 234 303 265 239 227 229 239 236 206 188 258 268 82 148 263 314 139 264 306 106 119 175 208 214 216 203 200 247 304 199 178 243 248 243 271 181 166 164 168 173 178 182 175 181 199 200 164 165 181 225 211 167 215 252 265 74 228 207 186 180 173 167 166 167 171 175 178 183 184
7 320 300 328 298 280 285 287 295 302 304 310 302 280 313 318 322 328 312 279 310 228 210 248 241 208 229 239 179 206 224 170 159 232 251 218 241 253 129 126 180 213 209 197 182 189 219 263 205 198 267 266 227 223 200 170 162 169 181 184 183 179 183 198 199 169 191 236 3 87 207 243 263 268 110 256 227 177 158 154 157 165 170 174 180 184 187 188
4 319 318 315 293 282 274 278 295 301 302 314 324 324 321 315 320 328 321 262 269 248 167 235 284 246 173 187 196 237 238 225 265 237 191 193 209 163 168 140 149 184 195 201 185 165 212 214 153 187 301 312 182 163 174 180 170 169 180 186 185 183 185 198 197 147 199 258 109 98 256 266 275 290 332 314 208 160 155 160 163 168 173 177 184 189 188 189
339 305 310 308 302 304 300 297 302 304 311 332 333 328 325 316 320 325 316 234 228 236 179 224 285 305 185 177 200 244 256 256 265 260 208 217 284 1 322 329 347 171 182 199 178 141 213 226 106 346 301 6 92 153 160 165 171 176 185 188 184 182 186 197 185 157 198 219 161 142 252 259 257 291 285 210 182 173 168 169 170 172 177 183 188 190 188 188
340 308 305 300 289 301 315 318 317 311 320 339 322 317 313 310 315 322 324 283 227 239 227 248 286 308 287 234 218 235 252 255 255 262 269 276 285 291 286 299 301 245 178 171 138 122 175 249 8 340 308 9 27 144 137 126 153 191 198 190 182 178 178 176 166 196 207 198 170 200 238 265 94 165 194 184 190 194 184 179 177 177 184 190 190 187 188 189
Height
829 829 828 827 826 825 824 823 822 821 820 819 818 817 817 816 815 815 814 813 812 811 810 809 808 807 806 804 803 801 798 795 792 791 789 782 781 783 782 781 780 780 780 780 780 780 780 780 780 781 781 781 783 783 784 784 785 787 791 797 795 795 792 786 788 787 785 783 778 780 783 784 787 784 781 782 783 784 786 786 786 785 784 783 782 781 782 785
829 828 827 827 826 825 824 823 822 821 820 819 818 817 816 815 814 814 813 812 811 810 809 808 808 806 805 804 802 800 797 794 791 788 784 779 780 781 781 780 779 778 778 778 778 779 779 779 779 780 779 780 782 782 782 783 783 785 791 794 788 786 784 779 779 780 781 781 779 782 783 782 783 782 781 783 786 786 786 788 789 789 788 786 785 785 785 786
829 828 827 826 826 824 823 822 821 820 819 818 817 816 815 814 813 813 812 811 810 809 809 808 807 806 804 803 801 799 796 793 788 784 781 779 779 780 780 779 777 776 776 775 776 778 778 777 779 779 778 780 781 781 782 782 782 782 788 790 783 780 781 778 779 780 780 780 781 785 784 782 782 780 780 782 785 786 785 787 789 791 790 789 787 787 786 787
829 828 827 826 825 824 823 822 821 819 818 817 816 815 814 813 813 812 811 810 809 808 808 807 806 805 804 802 801 799 797 791 783 779 779 779 779 779 779 777 775 773 772 773 774 777 777 777 778 778 779 780 780 781 781 779 780 782 783 782 779 780 781 780 781 780 781 782 783 784 785 784 781 780 780 781 785 785 781 779 781 784 787 788 786 786 786 787
829 828 827 826 824 823 822 821 820 819 818 816 815 815 813 813 812 810 810 809 808 807 807 806 805 804 803 802 800 799 797 786 778 778 778 778 778 778 777 775 773 771 770 772 773 775 777 777 777 778 779 779 781 781 779 775 777 781 780 777 777 781 781 779 779 780 782 783 783 784 785 782 780 780 779 780 783 780 775 773 773 776 780 782 781 783 784 785
828 827 826 825 824 823 821 820 819 818 817 816 815 814 812 812 810 810 809 808 807 806 806 805 804 804 802 801 800 800 798 784 776 779 777 777 777 776 776 775 773 771 770 772 772 773 775 775 776 777 777 778 779 778 776 774 775 778 778 777 778 779 779 777 777 779 781 782 783 783 782 780 781 781 779 779 778 774 771 771 771 772 774 776 778 780 781 783
828 827 826 824 823 822 821 820 818 817 816 815 814 813 811 810 809 808 807 806 806 804 805 804 803 803 801 801 799 799 799 787 776 778 777 776 776 775 776 774 773 772 771 772 772 771 772 774 774 773 775 777 776 775 774 774 775 776 777 778 778 777 776 776 777 778 779 780 781 781 780 781 782 781 780 778 773 770 771 771 770 771 772 775 777 779 780 782
827 826 825 824 822 821 820 819 817 816 815 814 813 811 810 809 808 807 806 805 804 804 803 803 803 803 801 801 800 799 797 784 774 776 777 775 775 775 775 774 773 772 771 772 771 770 770 771 772 772 774 773 773 774 773 774 776 776 776 777 777 777 775 775 777 778 779 779 780 781 781 781 780 780 780 776 771 770 771 770 770 771 773 776 777 779 781 783
827 825 824 823 822 820 819 818 817 815 814 813 811 810 809 808 807 805 805 803 802 802 801 801 802 801 801 801 801 800 788 776 773 775 774 774 774 774 774 773 772 772 771 771 770 769 768 768 769 769 770 771 772 772 771 774 774 772 774 775 775 776 775 776 777 777 778 779 779 781 782 780 778 780 779 773 771 772 771 770 771 772 774 776 777 779 780 782
826 824 823 822 821 819 818 817 815 814 813 812 810 809 808 807 806 804 803 802 801 801 800 801 800 800 801 799 802 798 779 772 775 774 773 773 773 772 772 772 771 771 771 769 769 768 766 766 767 767 768 769 771 771 771 772 770 769 771 773 773 773 774 776 776 776 777 778 778 780 781 778 777 780 778 773 773 772 772 773 773 773 775 776 777 777 779 781
825 823 822 821 819 818 816 815 814 813 812 810 809 808 806 805 804 803 802 801 800 799 799 799 798 799 799 799 803 793 774 772 774 772 774 773 772 771 770 770 770 770 769 768 768 767 766 766 766 767 768 768 769 771 771 768 767 768 770 773 774 773 774 775 775 776 777 777 777 777 779 778 779 780 774 771 773 772 772 773 773 774 775 775 776 777 778 780
824 823 821 820 818 816 815 814 812 811 810 809 808 806 805 804 802 801 800 799 798 798 798 797 798 797 797 798 794 781 771 772 773 772 773 771 771 770 768 769 768 768 768 768 767 766 767 767 766 767 766 765 767 771 769 765 766 768 769 774 776 775 775 773 774 775 776 777 774 776 781 780 778 776 771 771 772 771 771 772 773 774 774 775 776 777 778 779
823 822 820 819 817 815 814 812 811 810 808 807 806 804 803 801 800 799 798 798 797 797 796 796 796 795 798 793 780 772 773 773 772 772 771 770 770 767 767 767 766 767 767 766 766 766 766 766 766 766 766 765 766 768 765 764 766 768 769 771 774 779 777 769 771 774 775 775 771 777 785 778 771 771 771 772 770 772 773 772 773 773 773 774 775 777 778 778
823 821 819 818 816 814 813 811 810 808 807 806 804 803 801 799 798 796 796 796 794 795 795 795 795 795 796 785 772 772 773 771 772 771 769 769 768 766 765 765 764 765 765 765 765 765 765 766 767 767 766 766 765 765 766 767 767 768 771 771 772 778 775 767 769 771 774 775 768 776 786 775 767 769 771 771 769 771 772 771 771 772 772 772 773 776 776 776
822 820 818 817 815 813 811 810 808 807 806 804 802 801 798 797 795 794 794 793 792 793 793 794 793 794 794 782 770 771 770 770 770 768 768 768 767 766 764 764 764 763 763 764 764 765 765 765 766 767 766 766 767 767 768 770 768 766 772 774 773 774 772 768 768 767 769 773 769 775 784 774 765 767 770 770 769 770 770 769 770 770 770 770 772 774 775 775
821 819 817 816 814 812 810 809 807 806 804 802 800 799 796 794 793 791 790 789 791 791 791 793 791 793 793 780 770 769 769 769 768 767 768 767 767 765 763 763 763 762 763 763 763 765 765 765 766 766 766 766 768 767 768 772 771 767 768 771 773 773 772 769 769 766 762 767 771 772 777 772 766 767 769 769 769 769 769 768 768 768 768 768 770 773 774 775
820 818 816 815 813 811 809 808 806 804 803 801 798 796 794 792 791 789 788 788 788 788 790 790 789 792 786 773 769 768 767 767 766 766 766 765 766 764 763 762 761 761 762 762 764 764 764 764 764 765 765 766 767 766 769 772 770 769 769 771 774 772 772 771 769 767 760 764 769 770 771 766 765 769 769 768 767 768 769 768 768 767 767 768 769 772 773 774
819 817 815 814 812 810 808 806 805 803 801 799 797 794 792 790 789 788 787 786 787 788 790 789 792 791 775 766 769 766 765 767 766 766 765 764 764 763 763 762 760 760 760 761 762 762 763 763 763 765 765 766 765 762 764 763 760 768 770 771 774 770 770 768 764 764 762 763 765 769 771 763 762 770 770 768 767 767 767 765 766 766 767 768 769 771 771 771
818 816 814 813 811 809 807 805 803 802 800 797 795 793 790 789 788 788 787 786 786 787 786 786 788 782 766 763 768 766 766 767 765 765 764 763 763 762 762 761 760 759 757 757 760 760 760 762 764 763 760 759 759 755 756 756 754 763 765 764 768 766 766 764 759 759 760 763 764 766 769 761 761 770 771 768 767 767 767 765 765 767 767 768 769 769 769 768
816 815 813 811 809 808 806 804 802 800 798 796 794 791 790 791 790 788 787 785 783 780 778 778 779 774 766 765 766 766 766 765 764 763 762 762 762 761 760 760 760 758 753 752 757 757 757 760 760 754 751 752 755 755 756 757 755 759 762 762 763 762 764 764 760 758 757 761 764 762 763 760 759 765 768 767 768 769 769 768 768 768 767 767 767 766 766 766
815 814 812 810 808 807 805 803 801 799 798 796 794 793 793 795 793 789 786 781 776 776 774 772 772 771 767 765 765 767 767 765 762 761 761 761 762 762 758 758 759 755 750 749 754 757 756 756 752 748 748 751 755 756 757 759 757 757 758 761 763 761 761 762 759 758 758 760 762 762 764 759 756 762 765 767 770 770 768 768 768 767 766 765 764 764 763 763
814 812 811 809 807 805 803 802 800 798 796 795 794 794 794 794 792 791 789 782 773 773 772 768 770 769 765 764 765 768 770 768 762 758 758 759 760 760 756 756 756 751 748 749 752 756 757 752 747 748 750 752 756 757 756 759 759 758 756 758 763 761 760 762 759 758 757 758 760 765 766 757 756 767 768 766 767 765 763 764 764 763 763 763 761 761 762 763
812 810 809 807 805 803 801 800 798 796 795 794 794 794 793 791 791 791 791 786 774 768 767 766 767 766 763 762 763 766 769 768 763 756 754 756 757 756 754 755 754 750 748 747 747 752 754 749 746 749 751 753 757 757 757 759 759 759 757 756 761 762 761 761 760 759 758 758 760 764 765 757 760 773 773 767 764 761 761 761 762 762 761 760 759 760 762 763
810 809 808 806 804 802 800 798 796 794 793 793 793 792 791 791 791 790 790 787 777 767 764 763 764 763 761 761 761 763 765 764 761 755 752 753 753 753 753 752 753 752 746 742 743 748 749 745 745 749 750 751 755 757 757 758 760 762 759 755 758 761 758 756 759 760 760 762 760 761 767 762 760 769 771 768 767 764 763 763 763 763 760 759 760 760 760 760
809 808 806 804 802 800 798 796 794 793 793 792 791 790 791 790 790 790 789 788 778 766 762 762 762 760 758 759 760 761 762 761 757 752 751 751 750 751 751 750 750 750 746 743 745 747 747 745 744 748 750 750 753 755 754 753 758 763 761 756 755 756 756 757 759 758 761 765 759 760 771 768 760 762 764 768 772 769 767 766 763 760 759 760 760 759 758 758
807 805 804 802 801 798 797 794 793 794 792 791 790 789 790 789 789 789 790 790 779 762 759 762 761 758 757 758 759 760 761 757 750 748 750 749 748 748 749 748 747 747 746 745 746 746 746 746 745 745 748 750 751 753 751 750 757 762 757 755 757 755 756 758 757 756 761 765 762 761 766 767 762 759 761 767 772 769 767 766 761 758 758 757 756 755 756 757
805 803 801 800 799 798 797 794 793 793 791 790 788 789 789 788 789 789 788 790 776 758 758 761 759 758 756 756 757 758 757 750 745 746 747 748 748 747 747 746 746 746 744 746 749 746 742 746 747 744 745 749 749 751 750 748 754 758 753 754 758 757 757 758 756 757 759 760 764 763 761 765 762 758 764 769 769 768 767 764 758 754 754 752 752 752 753 755
803 801 799 797 797 797 795 793 792 790 788 788 787 789 788 787 789 788 788 786 768 755 758 758 757 757 755 755 756 754 751 748 748 746 744 747 748 747 747 745 744 744 741 743 748 743 739 744 747 744 745 747 745 746 749 749 752 753 752 754 756 756 757 757 755 759 762 762 765 763 761 767 763 759 768 771 767 766 763 758 753 751 750 750 750 751 752 753
800 798 796 795 793 792 791 790 788 786 786 786 787 788 787 788 788 786 789 783 761 753 757 756 756 755 755 757 756 753 752 751 751 746 744 748 747 746 746 743 742 742 740 740 742 742 739 739 742 743 743 744 743 745 747 748 750 750 752 754 755 758 758 757 758 759 765 768 765 760 761 765 762 759 768 772 765 758 751 748 747 746 747 747 748 749 749 752
798 795 793 791 788 787 787 786 784 783 784 785 786 786 786 788 786 788 793 777 756 754 756 755 756 756 758 759 755 753 754 751 747 745 746 747 746 746 744 742 742 740 740 741 739 739 738 735 738 740 740 740 741 745 745 745 748 749 751 754 759 763 761 762 763 761 770 774 764 759 759 762 762 756 758 760 752 743 740 741 741 741 743 744 744 746 747 750
794 791 788 786 784 783 784 783 780 781 782 784 785 786 788 787 787 792 787 765 754 757 755 753 755 755 756 757 753 751 751 748 744 744 747 745 746 748 744 742 742 741 743 744 741 739 738 738 739 737 735 736 739 745 745 743 746 747 747 752 761 768 767 769 771 771 777 774 762 759 758 762 764 752 744 742 735 733 733 732 733 734 737 738 740 743 745 749
790 786 783 781 780 780 781 780 778 779 780 782 784 786 787 788 787 784 771 756 756 758 754 754 755 752 753 754 752 749 747 745 741 740 743 743 744 745 743 739 738 743 746 744 741 741 740 739 738 735 733 733 736 745 748 747 746 744 745 752 762 771 775 777 775 774 776 769 763 765 761 761 759 742 734 734 731 730 729 726 726 727 729 733 737 740 743 747
786 782 779 778 777 777 778 779 779 779 780 782 785 785 788 789 780 769 763 760 757 754 753 756 753 751 752 753 749 746 746 743 738 737 738 739 742 742 742 738 736 740 740 737 739 741 743 742 738 736 735 730 731 738 745 747 745 741 741 747 755 765 776 781 777 775 776 767 764 768 764 761 755 736 727 726 724 723 724 723 723 723 727 731 734 738 741 744
783 780 777 776 776 775 777 779 780 779 780 782 785 786 789 786 770 760 761 760 755 752 753 753 752 750 749 749 745 742 744 742 737 735 735 738 742 741 740 739 738 737 733 735 738 737 742 745 737 734 733 729 728 730 733 738 741 740 736 738 746 752 761 771 770 770 771 765 766 771 764 757 749 733 723 722 722 723 724 723 722 723 726 729 732 736 739 742
781 778 777 776 775 775 776 778 780 780 781 782 785 788 786 776 765 762 762 757 755 755 753 750 751 751 746 743 743 740 740 739 735 732 732 736 739 737 735 734 736 737 733 735 738 733 736 738 730 729 728 726 729 729 727 734 744 744 737 739 746 741 745 762 767 763 762 761 765 768 758 744 734 724 723 728 727 726 726 724 724 725 726 728 732 733 736 739
780 777 776 776 775 776 776 777 779 780 781 783 786 787 778 766 761 763 761 756 756 756 753 749 749 750 743 739 743 743 739 738 734 731 731 734 735 734 734 731 732 736 731 730 734 732 734 734 729 729 730 726 726 728 727 729 738 743 741 742 742 736 739 757 770 769 764 761 763 764 754 740 732 722 721 729 726 723 726 725 723 725 725 728 730 731 733 736
780 778 777 776 776 776 775 776 778 780 781 785 785 778 768 761 758 759 758 756 757 756 756 753 748 747 743 738 741 741 738 737 735 732 731 732 734 733 732 730 730 731 728 726 729 729 729 732 730 728 731 728 723 725 728 725 728 739 742 738 737 741 743 748 761 770 768 762 761 762 752 741 739 731 722 725 723 720 725 726 724 726 726 727 728 729 731 733
781 779 777 776 776 775 775 776 778 780 783 786 783 772 763 760 758 757 757 755 755 755 756 754 748 746 744 739 739 740 738 737 737 735 731 731 734 732 729 730 728 726 727 727 729 727 724 729 732 726 726 729 723 726 733 729 726 731 732 731 735 746 750 751 759 764 765 767 763 759 755 745 738 728 717 718 716 712 721 727 726 726 725 725 726 727 729 731
781 779 777 776 776 774 775 776 777 781 784 784 780 770 761 758 756 756 756 754 754 755 754 751 747 747 746 743 740 740 737 734 736 736 731 729 732 729 725 727 726 724 725 727 728 726 722 727 734 727 722 727 727 728 733 733 731 729 727 731 735 738 742 746 750 749 751 764 764 758 758 746 729 717 710 708 706 707 719 726 724 722 722 722 723 725 728 730
781 779 777 776 776 775 776 778 779 783 784 778 773 767 760 757 755 753 753 752 753 752 750 749 747 746 746 743 742 741 736 732 734 734 729 725 728 730 726 722 723 723 724 726 726 726 725 726 730 728 725 729 729 725 724 726 731 732 731 735 737 737 738 739 745 745 742 754 760 758 756 739 716 709 705 701 703 707 714 719 720 720 720 721 722 724 727 729
782 780 778 776 776 776 777 780 781 782 781 774 769 765 760 757 755 752 750 749 750 748 747 748 746 744 742 741 742 742 736 730 731 732 727 722 724 729 725 718 719 722 724 727 726 724 725 724 726 729 729 729 725 719 717 719 724 727 729 733 733 734 738 742 750 749 742 746 752 753 751 729 706 704 703 701 707 710 711 715 719 720 720 721 722 724 726 728
783 780 777 776 776 776 779 781 780 781 778 772 767 764 760 757 755 751 747 746 746 746 747 748 746 743 741 740 741 742 737 729 729 730 725 720 719 720 718 716 717 719 721 725 723 720 721 722 724 728 727 725 720 716 716 717 719 723 726 728 729 730 733 738 747 747 743 748 748 748 746 723 705 711 712 709 712 712 710 713 716 718 719 720 722 723 725 728
785 781 777 776 777 777 780 779 776 776 774 767 763 761 758 757 755 750 747 746 744 743 746 747 744 741 741 742 741 740 737 729 726 725 721 719 716 712 714 716 717 717 718 721 721 719 720 722 724 726 724 721 720 718 716 716 720 726 726 724 726 728 726 727 735 737 740 746 743 746 746 721 707 718 719 714 716 714 712 714 715 717 718 718 721 722 725 728
787 783 778 777 777 777 780 778 774 773 769 764 761 757 754 755 754 750 747 747 744 742 744 744 742 741 741 742 740 738 736 731 725 722 720 718 714 711 713 715 715 716 716 718 717 715 719 722 722 727 731 731 732 731 727 722 721 722 724 725 724 726 728 729 734 736 739 740 736 740 741 718 707 719 718 715 718 715 715 715 714 716 717 718 721 723 725 729
786 782 779 778 777 777 780 778 778 776 770 767 764 756 751 752 750 747 746 745 742 741 742 740 739 742 741 739 738 736 734 731 726 723 720 716 713 713 714 714 714 714 712 712 711 711 719 723 720 722 730 733 735 734 726 720 718 717 721 725 724 725 728 729 734 738 739 742 739 735 730 712 704 712 714 714 718 717 717 718 715 716 718 719 722 724 726 729
788 784 781 779 776 777 779 778 780 779 774 772 766 756 752 751 746 743 745 744 740 739 740 737 736 739 739 737 736 733 730 728 726 724 720 716 713 713 714 712 712 713 711 710 710 712 718 721 719 718 718 717 718 717 711 710 716 720 721 724 723 724 725 726 732 735 734 742 741 728 721 716 707 704 707 713 719 718 718 719 718 718 719 720 723 724 725 727
792 792 790 786 780 777 777 777 779 778 775 774 768 758 755 752 745 742 743 741 738 738 739 737 736 736 735 734 735 732 729 728 726 723 721 718 714 713 714 714 713 712 711 709 709 713 717 719 720 718 714 710 710 711 707 708 715 720 721 724 724 725 728 728 729 729 728 737 736 722 721 724 711 700 703 710 716 717 716 718 719 720 721 722 723 724 725 727
793 794 793 792 788 783 780 777 777 777 773 770 767 762 757 752 747 744 742 739 739 739 738 736 735 735 733 731 732 732 731 728 725 724 722 719 717 713 712 715 714 710 710 710 708 712 717 719 720 720 716 712 712 713 709 705 711 715 716 720 723 725 730 728 727 728 725 725 725 720 722 721 707 700 703 707 711 712 713 715 718 720 721 722 723 724 725 726
796 796 793 792 792 789 785 781 778 777 772 766 763 760 757 753 748 743 740 740 739 737 737 734 731 732 735 734 734 732 729 724 721 723 723 720 718 715 711 713 713 709 709 710 709 710 715 718 720 719 716 712 712 714 710 706 710 713 713 715 718 721 725 723 723 728 725 721 724 725 723 716 704 701 706 709 711 711 711 715 718 720 722 722 723 724 724 726
801 800 796 794 792 787 784 781 778 775 770 764 761 758 756 754 748 742 740 740 737 734 736 734 729 730 734 736 736 732 725 721 720 720 721 720 718 716 712 709 708 709 709 710 710 710 714 719 719 717 715 714 713 712 710 708 709 711 713 713 714 719 723 720 722 730 729 726 728 730 726 717 707 707 713 714 714 713 714 716 718 719 721 721 722 723 724 726
805 803 800 798 792 783 779 777 776 773 768 764 763 760 756 754 749 743 738 736 735 735 735 732 729 729 730 733 736 732 724 724 723 718 718 717 714 714 714 710 709 710 710 710 710 710 714 718 717 716 715 715 714 712 711 710 711 713 715 715 714 719 722 720 722 728 726 721 725 731 725 712 707 714 719 717 715 714 715 716 717 718 719 718 720 722 723 724
805 802 801 800 793 783 778 776 774 771 766 764 765 762 758 753 748 744 739 733 732 734 733 730 729 730 728 728 730 728 723 723 722 718 717 716 714 714 715 714 714 711 709 710 711 713 716 715 715 719 717 715 717 714 710 714 721 721 715 711 712 715 718 720 723 724 719 716 720 723 713 704 711 719 716 714 716 715 713 713 715 716 716 715 717 719 720 721